STARLINK-36668

operational
NORAD ID: 70114 Constellation: starlink
LEOCIRCULAR

About STARLINK-36668

Description loading...

Live Position

Loading 3D Globe...

Upcoming Passes

Altitude History

Altitude vs Time

uPlot chart will show altitude changes over time

Two-Line Element Set

1 70114C 26050L 26073.75604167 .00544570 00000+0 71460-3 0 738
2 70114 53.1639 257.4932 0011197 268.7066 0.8180 16.05481407 12
Epoch: Mar 14, 2026 • Age: 47 hours